Location: Karcze
(52.0945°N, 22.4786°E)
Time: 01:26:07
(UTC+00:00)

Cosmos 2278 - Pass Details

Date: 14 July 2020
Orbit: 838 x 854 km, 71.1° (Epoch: 06 August)

Event Time Altitude Azimuth Distance (km) Brightness Sun altitude
Rises 00:15:32 0° 329° (NNW) 3,435 7.4 -13.1°
Reaches altitude 10° 00:18:01 10° 332° (NNW) 2,496 6.7 -13.0°
Maximum altitude 00:23:44 68° 56° (NE) 921 4.1 -12.6°
Drops below altitude 10° 00:29:25 10° 139° (SE) 2,481 5.9 -12.2°
Sets 00:31:53 0° 142° (SE) 3,412 6.6 -12.0°
